Temperature
16 17 17 17 17 17 17 17 17 17 17 17 17 17 17 17 17 16 16 16 16 16 16 16 16 16 16 16 16 16 16 16 16 16 15 15 15 15 15 15 15 15 15
16 16 17 17 17 17 17 17 17 17 16 16 17 17 17 17 16 16 16 16 16 16 16 16 16 16 15 16 15 15 15 15 16 15 15 15 15 15 15 15 15 15 15
16 16 17 17 16 16 16 16 16 16 16 16 16 16 16 16 16 16 16 16 16 16 16 16 16 15 15 15 15 15 15 15 15 15 15 15 15 15 15 15 15 15 15
16 16 16 16 16 16 16 16 16 16 16 16 16 16 16 16 16 16 16 16 16 16 15 15 15 15 15 15 15 15 15 15 15 15 14 14 14 15 15 15 15 15 15
15 16 16 16 16 16 16 16 16 16 16 16 16 16 16 16 16 16 16 16 16 16 15 15 15 15 15 15 15 15 15 15 15 15 14 14 14 14 15 15 15 15 15
15 15 16 16 16 16 16 16 16 16 16 16 16 16 16 15 16 16 16 16 16 15 15 15 15 15 15 15 15 15 15 15 15 14 14 14 14 14 14 15 15 15 14
15 15 15 15 16 16 16 16 16 15 15 15 15 15 15 15 15 15 15 15 15 15 15 15 15 15 15 15 15 15 15 15 15 14 14 14 14 14 14 15 15 15 14
15 15 15 15 15 15 15 15 15 15 15 15 15 15 15 15 15 15 15 15 15 15 15 15 15 15 15 15 15 15 15 15 14 14 14 14 14 14 14 14 14 14 14
14 14 15 15 15 15 15 15 15 15 15 15 15 15 15 15 15 15 15 15 15 15 15 15 15 15 15 15 15 15 15 15 14 14 14 14 14 14 14 14 14 14 14
14 14 14 14 14 15 14 15 15 15 15 15 15 15 15 15 15 14 14 14 15 15 15 15 15 15 15 15 15 15 15 15 14 14 14 14 14 14 14 14 14 14 14
13 14 14 14 14 14 14 14 14 14 14 14 14 14 15 14 14 14 14 14 14 14 14 14 14 14 14 14 14 14 14 14 14 14 14 14 14 14 14 14 14 14 14
13 13 14 14 14 14 14 14 14 14 14 14 14 14 14 14 14 14 14 14 14 14 14 14 14 14 14 14 14 14 14 14 14 14 14 14 14 14 14 14 14 14 14
13 13 13 13 14 14 14 14 14 13 13 14 14 14 14 14 14 14 14 14 13 13 14 14 14 14 14 14 14 14 14 14 14 14 14 14 14 14 14 14 14 14 14
12 13 13 13 13 13 13 13 13 13 13 13 13 13 13 13 14 13 13 13 13 13 13 13 13 13 13 13 13 13 13 13 13 13 13 13 14 14 14 14 14 14 14
12 12 12 13 13 13 13 13 13 13 13 13 13 13 13 13 13 13 13 13 13 13 13 13 13 13 13 13 13 13 13 13 13 13 13 13 13 13 14 14 14 14 14
11 12 12 12 12 12 12 12 12 12 12 12 12 12 12 12 12 12 12 12 12 12 12 12 12 12 12 12 12 13 13 13 13 13 13 13 13 13 13 13 13 13 13
11 11 12 12 12 12 12 12 12 12 12 12 12 12 11 11 12 12 12 12 12 12 12 12 12 12 12 12 12 12 12 12 12 13 13 13 13 13 13 13 13 13 13
11 11 11 11 12 12 12 12 11 11 11 11 11 11 11 11 11 11 11 11 11 11 11 11 11 11 11 11 12 12 12 12 12 12 12 12 12 12 12 12 12 13 13
11 11 11 11 11 11 11 11 11 11 11 10 10 10 10 10 10 11 11 11 11 11 11 11 11 11 11 11 11 12 12 12 12 12 12 12 12 12 12 12 12 12 12
10 11 11 11 11 11 11 10 10 10 10 10 10 10 10 10 10 10 10 10 10 10 10 10 10 10 10 11 11 11 11 11 11 11 11 11 11 11 11 11 11 11 11
10 10 10 10 10 10 10 10 10 10 10 10 9 10 10 10 10 10 10 10 10 10 10 10 10 10 10 10 10 11 11 11 11 11 11 11 11 11 11 11 11 11 11
10 10 10 10 10 10 10 10 9 9 9 9 9 9 9 9 9 9 9 9 9 9 9 10 10 10 9 9 9 9 10 10 11 10 10 10 10 10 10 10 10 10 10
9 9 9 10 10 9 9 9 9 9 9 9 9 9 9 9 9 9 9 9 9 9 9 9 9 9 9 9 8 8 8 8 9 10 10 10 9 10 9 9 9 9 9
9 9 9 9 9 9 9 9 9 9 8 8 8 8 8 8 8 9 9 9 9 9 9 8 8 8 8 8 8 8 7 7 7 8 9 9 9 9 9 8 9 9 9
9 9 9 9 9 9 9 9 9 8 8 8 8 8 8 8 8 8 8 8 8 8 8 8 8 8 8 7 7 7 7 7 7 7 7 8 8 8 8 8 7 8 8
9 9 9 9 9 9 9 8 8 8 8 8 8 8 8 8 8 8 7 7 7 8 8 8 7 7 7 7 7 7 6 6 6 6 6 6 7 7 7 7 7 7 7
Wind_Speed
7 9 9 9 9 9 8 8 8 7 7 7 6 6 6 5 5 4 4 4 4 4 3 3 3 3 4 4 5 5 6 6 6 6 6 6 7 7 7 7 7 8 9
9 11 11 10 9 9 9 8 7 7 6 6 5 5 5 4 4 3 3 3 3 3 3 3 3 3 3 3 3 4 4 4 4 4 4 5 5 5 6 7 8 7 8
10 11 11 10 10 9 9 9 8 7 6 5 5 4 4 3 2 2 2 2 2 2 2 2 2 2 2 2 2 2 2 2 2 2 2 3 5 4 5 5 5 6 6
10 12 10 10 10 9 9 9 8 7 6 5 4 4 3 2 2 2 2 1 2 2 2 1 1 1 1 1 1 1 2 3 4 5 4 3 5 5 5 4 3 3 4
10 12 11 10 9 9 8 8 8 7 6 6 5 4 3 2 1 1 1 1 1 1 1 1 1 1 1 1 2 3 4 5 6 7 5 1 4 6 5 4 2 2 2
9 12 11 10 9 8 8 7 6 6 6 5 4 3 3 2 2 1 1 1 1 1 1 1 1 2 2 3 3 4 6 6 7 8 6 3 5 7 5 4 2 2 2
8 10 10 9 9 8 7 7 6 5 4 4 4 3 3 2 1 1 1 1 1 1 2 2 3 3 4 4 5 6 6 8 9 7 4 3 5 7 5 4 4 4 3
7 8 8 8 8 7 6 6 5 5 4 3 3 3 3 2 2 1 1 1 2 2 2 3 4 5 5 6 7 8 8 8 9 7 6 5 7 7 6 5 5 5 5
8 7 7 7 7 6 6 6 5 4 3 2 2 2 3 3 3 3 2 2 2 3 3 4 4 5 6 7 8 9 10 11 11 8 8 6 9 9 8 7 7 7 7
8 7 7 7 7 6 4 4 4 3 3 2 2 3 3 3 4 4 3 3 3 4 4 5 6 6 7 9 10 11 12 11 12 11 9 8 10 10 10 9 9 9 9
8 7 7 7 7 7 4 4 3 2 3 3 3 4 4 3 4 4 3 3 4 5 6 6 7 8 9 9 11 13 13 11 12 10 9 10 11 11 11 11 11 11 11
7 6 6 6 6 7 6 5 4 3 4 4 5 5 4 5 5 5 4 4 5 5 6 7 8 8 8 8 9 11 11 12 11 8 9 12 13 12 12 12 13 13 13
6 6 6 5 6 6 5 5 5 4 3 4 5 6 6 5 5 5 4 4 4 4 4 6 6 6 7 7 6 7 10 10 8 8 9 11 12 13 13 14 14 14 14
6 6 6 5 5 6 6 5 5 5 4 5 6 7 6 4 4 4 3 4 4 4 4 4 4 6 7 8 6 6 8 7 7 7 8 11 12 13 14 15 15 15 16
6 6 5 5 5 5 4 4 5 5 5 6 6 7 7 4 3 3 3 4 5 6 5 4 4 5 5 5 6 5 5 5 6 7 7 10 12 14 15 16 17 17 17
5 5 5 5 5 5 3 3 3 4 5 5 6 7 8 7 5 4 3 3 4 6 6 5 5 4 4 4 5 5 6 6 6 7 7 8 11 13 15 16 16 17 17
4 5 4 4 5 5 4 4 4 5 5 5 6 7 8 8 7 5 3 3 5 7 7 6 6 5 5 5 5 5 5 5 6 6 6 6 8 10 11 12 13 13 14
4 4 4 4 5 5 4 4 4 4 5 5 6 7 8 8 9 7 3 3 7 7 5 4 4 4 5 5 5 5 5 4 5 5 5 5 4 4 6 8 10 11 11
4 4 4 3 4 3 3 2 2 3 4 5 6 7 7 8 9 7 4 5 7 5 3 5 5 4 4 5 6 5 5 4 4 4 3 3 2 2 2 5 7 7 8
3 3 3 3 3 3 2 2 2 2 3 5 5 7 8 8 9 8 5 6 6 4 4 5 6 5 4 5 6 6 5 4 3 2 2 2 2 3 3 3 3 4 4
3 3 2 2 2 2 2 2 2 2 2 2 4 7 8 8 9 8 5 5 5 4 5 6 5 6 4 4 4 5 4 3 2 2 2 2 3 3 3 3 3 2 2
3 2 2 2 2 2 2 2 1 1 1 1 2 4 7 8 8 7 6 4 5 4 5 5 5 4 3 4 2 3 4 4 3 2 1 2 3 3 3 3 3 3 3
3 2 2 1 1 1 2 1 2 1 1 2 2 2 4 6 7 7 7 5 5 4 4 5 5 4 4 3 2 1 2 3 3 3 2 2 4 4 4 4 5 6 6
4 3 2 1 1 1 1 1 1 1 1 1 1 1 2 4 5 6 6 6 4 4 4 5 5 4 3 3 3 2 2 2 2 3 3 3 5 4 4 4 5 6 7
4 3 3 2 1 1 1 1 1 1 1 0 1 1 2 2 4 5 6 5 4 3 4 5 5 5 3 3 3 3 3 3 2 2 4 4 4 4 4 4 4 6 9
4 3 3 3 2 2 2 2 2 2 1 1 1 1 1 1 2 4 5 4 4 4 4 4 4 5 4 4 3 3 2 2 2 2 3 4 4 3 4 3 5 6 9
Wind_Direction
100 97 92 90 93 93 93 95 98 99 97 94 95 97 95 91 82 76 74 72 66 62 66 73 76 79 75 78 78 77 80 83 81 81 79 73 74 70 56 45 52 69 77
108 103 94 89 90 90 89 91 94 98 100 97 93 94 97 94 85 80 79 73 67 60 68 71 68 79 84 86 89 88 92 99 102 109 105 93 89 80 61 54 59 69 76
104 103 95 86 87 86 85 85 86 88 90 93 92 90 91 93 89 80 82 73 71 58 57 63 56 72 85 102 104 112 125 145 171 210 207 168 134 110 90 74 71 71 76
100 101 97 90 87 85 83 82 80 80 81 83 86 83 82 83 81 75 67 69 63 43 29 38 40 52 82 120 167 185 201 231 248 265 259 192 144 135 124 104 87 82 82
94 98 96 92 88 86 83 79 76 77 74 72 72 67 63 59 54 56 59 50 47 33 21 17 354 345 258 230 223 224 233 247 259 266 268 216 128 142 140 131 120 104 108
87 89 95 94 90 87 83 80 75 75 73 68 64 58 50 43 20 358 17 22 359 340 304 295 290 286 260 244 238 238 244 255 266 262 247 213 143 149 151 156 166 169 157
86 85 92 95 94 92 87 82 76 71 69 64 56 48 37 21 3 359 10 6 331 297 286 283 276 267 260 253 249 249 252 258 261 266 259 203 157 165 173 185 203 203 196
85 85 90 88 97 96 94 88 78 69 61 57 49 29 12 355 334 314 317 319 304 292 280 280 284 274 263 254 253 253 252 258 266 257 247 214 183 183 193 207 213 209 210
65 71 72 71 75 84 95 96 87 76 62 48 39 10 338 308 291 279 274 282 287 289 286 282 283 278 269 259 252 251 250 253 264 265 256 220 189 196 208 217 216 219 224
65 60 56 50 51 48 69 90 86 85 68 41 22 357 330 308 289 278 264 260 272 280 281 278 277 276 271 264 254 249 249 253 253 249 245 225 201 205 213 220 224 226 229
65 54 47 39 32 25 25 54 59 72 57 32 13 353 333 320 312 296 285 278 272 274 275 274 275 274 271 267 259 250 246 247 249 240 231 221 211 213 218 222 228 232 234
67 57 48 35 26 19 21 25 23 31 34 23 11 357 333 330 328 324 320 298 281 273 274 276 275 271 267 261 261 253 243 246 249 242 230 215 214 220 225 227 231 235 236
73 59 50 34 28 21 8 12 9 11 22 16 11 1 348 353 350 345 345 324 305 293 288 288 280 270 264 261 255 245 244 249 251 249 237 219 216 224 232 234 236 238 239
72 60 47 32 31 24 13 359 5 12 18 18 12 5 359 2 354 342 341 332 328 316 304 294 282 278 275 272 261 249 250 250 254 253 241 227 223 229 237 240 241 241 243
76 62 51 36 29 19 13 3 14 12 14 13 17 6 3 2 340 340 338 336 330 322 318 309 297 294 291 290 288 286 281 272 266 266 257 238 231 232 237 242 244 245 245
76 65 50 42 24 16 18 6 7 8 11 13 14 9 6 2 350 340 335 339 333 323 320 315 309 307 298 295 291 289 290 288 276 270 264 249 242 239 238 242 246 250 249
82 70 51 46 30 20 16 5 10 9 18 14 10 11 8 1 352 345 335 334 332 326 326 324 317 318 313 309 303 296 287 283 281 277 270 260 250 245 243 244 247 251 253
85 76 53 37 31 24 16 2 3 15 23 19 16 12 5 0 358 353 343 332 336 335 337 321 324 321 316 315 311 304 298 293 287 282 277 270 263 253 244 244 247 250 254
87 81 67 49 34 21 1 351 13 26 30 28 25 17 6 5 4 354 346 346 343 341 332 330 329 322 319 321 310 297 292 288 290 293 294 291 287 286 268 254 254 252 256
99 84 70 60 34 9 352 -0 29 34 36 36 28 20 13 12 8 357 355 351 350 342 337 338 331 327 317 316 310 303 290 281 289 287 299 318 335 332 317 299 275 261 267
119 99 74 57 35 14 4 5 13 19 20 28 31 25 16 16 10 5 2 352 353 345 343 341 338 328 322 331 321 312 298 282 302 311 345 352 340 336 338 349 353 340 305
149 133 115 81 46 25 13 358 335 350 354 45 39 26 19 19 14 7 3 352 351 348 350 349 350 340 325 342 330 319 318 318 332 320 354 8 353 345 349 7 17 24 33
157 154 129 95 66 29 357 353 345 351 352 28 19 17 20 22 19 12 3 0 356 359 352 347 353 347 330 320 343 336 323 312 324 320 339 11 7 3 3 7 38 42 44
160 152 144 144 125 40 341 328 311 301 323 343 5 15 20 29 24 13 4 2 1 359 354 347 357 340 336 332 329 337 309 302 309 314 322 1 359 3 9 8 27 39 39
146 150 161 169 165 164 265 275 293 294 292 345 8 5 357 16 24 15 4 1 1 0 357 354 353 352 354 351 343 333 325 326 328 283 297 329 343 359 5 12 34 40 40
144 147 168 183 190 186 213 234 229 249 264 275 289 318 330 357 14 14 1 3 5 359 353 350 351 354 0 0 2 7 4 350 340 319 295 311 318 330 346 25 44 42 37
Height
1525 1525 1527 1528 1529 1530 1532 1533 1534 1535 1536 1536 1537 1538 1538 1538 1539 1539 1539 1539 1539 1540 1540 1540 1540 1540 1540 1540 1540 1541 1541 1541 1541 1541 1541 1540 1540 1540 1541 1541 1541 1541 1541
1524 1525 1526 1528 1529 1530 1532 1533 1534 1535 1536 1536 1537 1538 1538 1539 1539 1539 1539 1540 1540 1540 1540 1540 1540 1540 1540 1541 1541 1541 1541 1541 1541 1541 1541 1541 1541 1541 1541 1541 1541 1541 1541
1523 1524 1526 1528 1529 1530 1532 1533 1534 1535 1536 1537 1537 1538 1538 1539 1539 1539 1540 1540 1540 1540 1541 1541 1541 1541 1541 1541 1541 1541 1542 1542 1542 1542 1542 1541 1542 1542 1542 1542 1542 1542 1542
1523 1524 1526 1527 1529 1530 1531 1533 1534 1535 1536 1537 1537 1538 1538 1538 1539 1539 1539 1540 1540 1540 1540 1541 1541 1541 1541 1541 1541 1541 1542 1542 1542 1542 1542 1542 1542 1542 1542 1542 1542 1542 1542
1524 1524 1526 1527 1529 1530 1531 1533 1534 1535 1535 1536 1537 1537 1538 1538 1539 1539 1539 1539 1540 1540 1540 1540 1540 1540 1541 1541 1541 1541 1541 1542 1542 1542 1542 1542 1542 1542 1542 1542 1541 1541 1541
1524 1524 1526 1527 1529 1530 1531 1532 1533 1534 1535 1536 1536 1537 1537 1538 1538 1538 1538 1539 1539 1539 1539 1539 1540 1540 1540 1540 1540 1540 1541 1541 1541 1542 1542 1542 1542 1541 1541 1541 1541 1541 1541
1523 1525 1526 1527 1528 1530 1531 1532 1533 1534 1534 1535 1536 1536 1536 1537 1537 1537 1537 1538 1538 1538 1538 1538 1538 1539 1539 1539 1539 1539 1540 1540 1540 1541 1541 1541 1541 1541 1541 1540 1540 1540 1540
1523 1525 1526 1527 1528 1529 1530 1531 1532 1533 1534 1534 1535 1535 1535 1536 1536 1536 1536 1536 1536 1537 1537 1537 1537 1537 1537 1538 1538 1538 1538 1539 1539 1539 1539 1540 1540 1540 1540 1539 1539 1539 1540
1523 1524 1526 1527 1528 1529 1529 1530 1531 1532 1532 1533 1533 1534 1534 1534 1534 1535 1535 1535 1535 1535 1535 1535 1535 1535 1535 1536 1536 1536 1536 1537 1537 1537 1538 1538 1538 1538 1538 1538 1538 1538 1538
1523 1524 1525 1526 1527 1528 1529 1530 1530 1531 1531 1532 1532 1532 1533 1533 1533 1533 1533 1533 1533 1533 1533 1533 1533 1533 1533 1533 1533 1534 1534 1534 1535 1535 1535 1536 1536 1536 1536 1536 1536 1536 1537
1523 1524 1525 1526 1526 1527 1528 1529 1529 1530 1530 1530 1531 1531 1531 1531 1531 1531 1531 1531 1531 1531 1531 1531 1530 1530 1530 1530 1531 1531 1531 1532 1532 1533 1533 1533 1534 1534 1534 1534 1534 1534 1535
1522 1523 1524 1525 1526 1527 1527 1528 1528 1529 1529 1529 1529 1529 1529 1529 1529 1529 1529 1529 1529 1529 1528 1528 1528 1528 1527 1527 1527 1528 1528 1529 1529 1529 1530 1530 1531 1531 1531 1531 1532 1532 1532
1522 1523 1524 1524 1525 1526 1526 1527 1527 1528 1528 1528 1528 1528 1528 1527 1527 1527 1527 1527 1526 1526 1526 1525 1525 1525 1525 1525 1525 1525 1525 1525 1526 1526 1527 1527 1527 1528 1528 1528 1528 1529 1529
1522 1522 1523 1524 1524 1525 1525 1526 1526 1526 1526 1526 1526 1526 1526 1525 1525 1525 1524 1524 1524 1524 1523 1523 1522 1522 1522 1522 1522 1522 1522 1522 1523 1523 1523 1524 1524 1524 1524 1524 1524 1525 1525
1522 1522 1523 1523 1524 1524 1524 1525 1525 1525 1525 1525 1524 1524 1524 1524 1523 1523 1522 1522 1521 1521 1521 1520 1520 1519 1519 1519 1519 1519 1519 1519 1519 1519 1520 1520 1520 1520 1520 1520 1520 1521 1521
1521 1522 1522 1522 1523 1523 1523 1523 1523 1523 1523 1523 1523 1523 1522 1522 1521 1521 1520 1520 1519 1519 1518 1518 1517 1516 1516 1516 1516 1516 1516 1516 1516 1516 1516 1515 1515 1516 1516 1516 1516 1516 1517
1521 1521 1521 1522 1522 1522 1522 1522 1522 1522 1522 1522 1521 1521 1521 1520 1519 1519 1518 1518 1517 1516 1516 1515 1514 1514 1513 1512 1512 1512 1512 1512 1512 1512 1512 1511 1511 1511 1511 1511 1511 1512 1512
1520 1520 1520 1521 1520 1521 1521 1521 1521 1520 1520 1520 1520 1519 1519 1518 1518 1517 1516 1516 1515 1514 1513 1512 1511 1510 1510 1509 1508 1508 1508 1508 1508 1508 1508 1507 1507 1507 1506 1506 1507 1507 1508
1519 1519 1520 1520 1520 1520 1520 1519 1519 1519 1519 1519 1518 1518 1517 1517 1516 1515 1514 1513 1512 1512 1511 1510 1509 1508 1507 1506 1505 1505 1505 1504 1504 1504 1504 1504 1503 1503 1503 1502 1502 1503 1503
1518 1518 1518 1519 1519 1519 1519 1518 1518 1518 1518 1518 1517 1516 1516 1515 1514 1513 1512 1512 1511 1510 1509 1508 1507 1506 1504 1503 1502 1502 1501 1501 1500 1500 1500 1500 1499 1499 1499 1499 1498 1498 1499
1517 1517 1517 1517 1517 1517 1517 1517 1517 1517 1517 1516 1516 1515 1515 1514 1513 1512 1511 1510 1509 1508 1506 1505 1504 1503 1502 1501 1500 1498 1498 1497 1497 1497 1497 1496 1496 1496 1496 1495 1495 1495 1494
1516 1516 1516 1516 1516 1516 1516 1516 1516 1515 1515 1515 1515 1514 1513 1512 1511 1510 1509 1508 1507 1506 1505 1503 1502 1501 1500 1499 1498 1496 1495 1495 1494 1494 1494 1493 1493 1493 1492 1492 1491 1491 1490
1514 1514 1514 1514 1514 1515 1514 1514 1514 1514 1513 1513 1513 1512 1511 1510 1509 1509 1508 1506 1505 1504 1503 1502 1500 1499 1498 1498 1497 1497 1496 1494 1492 1492 1492 1491 1491 1490 1488 1488 1488 1487 1487
1513 1513 1513 1513 1513 1513 1513 1513 1512 1512 1511 1511 1511 1510 1509 1509 1508 1507 1506 1505 1503 1502 1501 1500 1499 1497 1497 1496 1495 1495 1495 1494 1493 1490 1489 1489 1488 1487 1486 1485 1485 1484 1483
1511 1511 1511 1511 1511 1511 1511 1511 1510 1510 1510 1509 1509 1508 1508 1507 1506 1505 1504 1503 1502 1501 1499 1498 1497 1496 1495 1494 1493 1493 1492 1492 1491 1490 1487 1485 1485 1484 1484 1483 1482 1481 1480
1509 1509 1509 1509 1509 1509 1509 1508 1508 1508 1507 1507 1506 1506 1505 1504 1504 1503 1502 1501 1500 1499 1497 1496 1495 1494 1493 1492 1491 1490 1490 1489 1488 1487 1485 1483 1482 1481 1481 1480 1479 1478 1477